Weather History for Prescott, AZ

Change the Weather History Date:

Saturday, March 10, 2012

  Actual Average Record
Temperature  
Mean Temperature 44 °F 46 °F  
Max Temperature 62 °F 59 °F 80 °F (1989)
Min Temperature 27 °F 32 °F 17 °F (1958)
Degree Days  
Heating Degree Days 20    
Month to date heating degree days  
Since 1 July heating degree days  
Cooling Degree Days 0    
Month to date cooling degree days  
Year to date cooling degree days  
Moisture  
Dew Point 17 °F    
Average Humidity 37    
Maximum Humidity 63    
Minimum Humidity 14    
Precipitation  
Precipitation 0.00 in 0.04 in 0.94 in (1969)
Month to date precipitation 0.41  
Year to date precipitation 2.92  
Sea Level Pressure  
Sea Level Pressure 29.99 in    
Wind  
Wind Speed 6 mph (WSW)    
Max Wind Speed 21 mph    
Max Gust Speed 24 mph    
Visibility 10 miles    
Events      
T = Trace of Precipitation, MM = Missing Value Source: NWS Daily Summary

Daily Weather History Graph

Daily Weather History Graph

Search for Another Location

Airport:

Trip Planner

Search our weather history database for the weather conditions in past years. The results will help you decide how hot, cold, wet, or windy it might be!

Date:

Astronomy

Mar. 10, 2012 Rise Set
Actual Time 6:46 AM MST 6:33 PM MST
Civil Twilight 6:21 AM MST 6:58 PM MST
Nautical Twilight 5:52 AM MST 7:28 PM MST
Astronomical Twilight 5:22 AM MST 7:57 PM MST
Moon 9:39 PM MST (3/10) 7:53 AM MST (3/10)
Length of Visible Light 12h 37m
Length of Day
11h 47m
Waning Gibbous, 92% of the Moon is Illuminated
Mar 10
Waning Gibbous
Mar 14
Last Quarter
Mar 22
New
Mar 30
First Quarter
Apr 6
Full

Hourly Weather History & Observations

Time (MST) Temp. Windchill Dew Point Humidity Pressure Visibility Wind Dir Wind Speed Gust Speed Precip Events Conditions
12:53 AM 34.0 °F 28.0 °F 16.0 °F 48% 30.06 in 10.0 mi SSW 6.9 mph - N/A   Clear
1:53 AM 30.9 °F 26.2 °F 16.0 °F 54% 30.05 in 10.0 mi Variable 4.6 mph - N/A   Clear
2:53 AM 32.0 °F - 16.0 °F 52% 30.03 in 10.0 mi Calm Calm - N/A   Clear
3:53 AM 30.0 °F - 16.0 °F 56% 30.02 in 10.0 mi Calm Calm - N/A   Clear
4:53 AM 28.0 °F - 16.0 °F 61% 30.02 in 10.0 mi Calm Calm - N/A   Clear
5:53 AM 27.0 °F - 15.1 °F 61% 30.04 in 10.0 mi Calm Calm - N/A   Clear
6:53 AM 27.0 °F - 16.0 °F 63% 30.06 in 10.0 mi Calm Calm - N/A   Clear
7:53 AM 32.0 °F - 16.0 °F 52% 30.08 in 10.0 mi Calm Calm - N/A   Clear
8:53 AM 39.9 °F - 19.0 °F 43% 30.06 in 10.0 mi Calm Calm - N/A   Clear
9:53 AM 45.0 °F - 21.9 °F 40% 30.05 in 10.0 mi Calm Calm - N/A   Clear
10:53 AM 50.0 °F - 21.0 °F 32% 30.04 in 10.0 mi NE 8.1 mph - N/A   Clear
11:53 AM 51.1 °F - 19.9 °F 29% 30.01 in 10.0 mi NNW 6.9 mph - N/A   Clear
12:53 PM 55.9 °F - 17.1 °F 22% 29.98 in 10.0 mi WNW 9.2 mph - N/A   Scattered Clouds
1:53 PM 59.0 °F - 17.1 °F 20% 29.94 in 10.0 mi North 9.2 mph 17.3 mph N/A   Scattered Clouds
2:53 PM 61.0 °F - 14.0 °F 16% 29.90 in 10.0 mi WNW 13.8 mph 21.9 mph N/A   Scattered Clouds
3:53 PM 62.1 °F - 12.0 °F 14% 29.89 in 10.0 mi NW 15.0 mph 23.0 mph N/A   Partly Cloudy
4:53 PM 60.1 °F - 16.0 °F 18% 29.90 in 10.0 mi WSW 20.7 mph 24.2 mph N/A   Partly Cloudy
5:53 PM 57.0 °F - 15.1 °F 19% 29.92 in 10.0 mi West 17.3 mph 23.0 mph N/A   Clear
6:53 PM 52.0 °F - 15.1 °F 23% 29.94 in 10.0 mi WSW 15.0 mph 21.9 mph N/A   Clear
7:53 PM 50.0 °F - 15.1 °F 25% 29.95 in 10.0 mi SSW 10.4 mph - N/A   Clear
8:53 PM 48.0 °F - 19.0 °F 32% 29.96 in 10.0 mi South 11.5 mph 17.3 mph N/A   Clear
9:53 PM 46.0 °F 43.9 °F 19.9 °F 35% 29.96 in 10.0 mi South 4.6 mph - N/A   Clear
10:53 PM 45.0 °F 40.6 °F 19.0 °F 36% 29.95 in 10.0 mi SSE 8.1 mph - N/A   Clear
11:53 PM 44.1 °F 39.5 °F 19.0 °F 37% 29.94 in 10.0 mi South 8.1 mph - N/A   Clear